Farmington, NM

3:28 PM MDT on August 24, 2016 (GMT -0600)
Four Corners Regional

Weather History for KFMN - December, 2012

Change the Weather History Date:

Wednesday, December 5, 2012

  Actual Average Record
Temperature  
Mean Temperature 44 °F -  
Max Temperature 59 °F 43 °F 63 °F (1980)
Min Temperature 28 °F 21 °F 8 °F (1991)
Degree Days  
Heating Degree Days 22    
Moisture  
Dew Point 20 °F    
Average Humidity 45    
Maximum Humidity 67    
Minimum Humidity 16    
Precipitation  
Precipitation 0.00 in - - ()
Sea Level Pressure  
Sea Level Pressure 30.22 in    
Wind  
Wind Speed 6 mph (ENE)    
Max Wind Speed 9 mph    
Max Gust Speed -    
Visibility 10 miles    
Events      
Averages and records for this station are not official NWS values.
T = Trace of Precipitation, MM = Missing Value Source: NWS Daily Summary

Daily Weather History Graph

Daily Weather History Graph

Search for Another Location

Airport or City:

Trip Planner

Search our weather history database for the weather conditions in past years. The results will help you decide how hot, cold, wet, or windy it might be!

Date:

Astronomy

Dec. 05, 2012 Rise Set
Actual Time 7:10 AM MST 4:56 PM MST
Civil Twilight 6:42 AM MST 5:25 PM MST
Nautical Twilight 6:10 AM MST 5:57 PM MST
Astronomical Twilight 5:38 AM MST 6:28 PM MST
Moon 11:41 PM MST (12/5) 11:43 AM MST (12/5)
Length of Visible Light 10h 42m
Length of Day
9h 45m
Waning Gibbous, 59% of the Moon is Illuminated
Dec 5
Waning Gibbous
Dec 6
Last Quarter
Dec 13
New
Dec 19
First Quarter
Dec 28
Full

Hourly Weather History & Observations

Time (MST) Temp. Windchill Dew Point Humidity Pressure Visibility Wind Dir Wind Speed Gust Speed Precip Events Conditions
12:53 AM 32.0 °F 24.8 °F 19.9 °F 61% 30.36 in 10.0 mi East 8.1 mph - N/A   Clear
1:53 AM 30.0 °F 26.5 °F 19.0 °F 64% 30.36 in 10.0 mi ENE 3.5 mph - N/A   Clear
2:53 AM 28.0 °F 22.8 °F 17.1 °F 63% 30.37 in 10.0 mi NE 4.6 mph - N/A   Clear
3:53 AM 30.0 °F 23.2 °F 18.0 °F 61% 30.35 in 10.0 mi East 6.9 mph - N/A   Clear
4:53 AM 30.0 °F 23.2 °F 19.0 °F 64% 30.35 in 10.0 mi East 6.9 mph - N/A   Clear
5:53 AM 28.9 °F 21.1 °F 19.0 °F 67% 30.36 in 10.0 mi East 8.1 mph - N/A   Clear
7:53 AM 30.0 °F 23.2 °F 19.0 °F 64% 30.39 in 10.0 mi East 6.9 mph - N/A   Clear
8:53 AM 34.0 °F 27.2 °F 19.9 °F 56% 30.36 in 10.0 mi East 8.1 mph - N/A   Clear
9:53 AM 39.0 °F 35.7 °F 21.0 °F 49% 30.35 in 10.0 mi ESE 4.6 mph - N/A   Clear
10:53 AM 45.0 °F 42.6 °F 21.9 °F 40% 30.30 in 10.0 mi ESE 4.6 mph - N/A   Clear
11:53 AM 52.0 °F - 21.9 °F 31% 30.22 in 10.0 mi ESE 5.8 mph - N/A   Clear
12:53 PM 55.0 °F - 21.9 °F 28% 30.16 in 10.0 mi East 5.8 mph - N/A   Clear
1:53 PM 57.0 °F - 23.0 °F 27% 30.13 in 10.0 mi Calm Calm - N/A   Clear
2:53 PM 59.0 °F - 23.0 °F 25% 30.10 in 10.0 mi Calm Calm - N/A   Clear
3:53 PM 55.9 °F - 23.0 °F 28% 30.09 in 10.0 mi NE 3.5 mph - N/A   Clear
4:53 PM 52.0 °F - 23.0 °F 32% 30.09 in 10.0 mi NNE 3.5 mph - N/A   Clear
5:53 PM 46.0 °F 43.9 °F 21.9 °F 39% 30.11 in 10.0 mi NE 4.6 mph - N/A   Clear
6:53 PM 42.1 °F 38.4 °F 21.0 °F 43% 30.11 in 10.0 mi NE 5.8 mph - N/A   Clear
7:53 PM 39.0 °F 34.8 °F 19.9 °F 46% 30.12 in 10.0 mi NE 5.8 mph - N/A   Clear
8:53 PM 37.0 °F 31.0 °F 19.9 °F 50% 30.11 in 10.0 mi NE 8.1 mph - N/A   Clear
9:53 PM 37.9 °F 33.5 °F 19.9 °F 48% 30.09 in 10.0 mi ESE 5.8 mph - N/A   Clear
10:53 PM 34.0 °F 26.6 °F 19.0 °F 54% 30.08 in 10.0 mi NE 9.2 mph - N/A   Clear
11:53 PM 32.0 °F 26.4 °F 19.0 °F 59% 30.05 in 10.0 mi East 5.8 mph - N/A   Clear